Location: Central Coast NSW, Australia
(33.2407°S, 151.4316°E)
Time: 06:21:27
(UTC+11:00)

Hubble Space Telescope - Visible Passes

Search period start: 21 October 2019 00:00
Search period end: 31 October 2019 00:00
Orbit: 536 x 540 km, 28.5° (Epoch: 19 October)

Date Brightness Start Highest point End Pass type
(mag) Time Alt. Az. Time Alt. Az. Time Alt. Az.
22 Oct 3.1 21:00:35 10° NNW 21:01:23 14° NNW 21:01:23 14° NNW visible
23 Oct 2.3 20:49:42 10° NW 20:52:00 22° N 20:52:00 22° N visible
24 Oct 1.8 20:38:53 10° NW 20:42:30 29° NNE 20:42:30 29° NNE visible
25 Oct 1.6 20:28:08 10° NW 20:31:54 33° NNE 20:32:52 29° NE visible
26 Oct 1.5 20:17:25 10° WNW 20:21:17 36° N 20:23:08 24° ENE visible
26 Oct 3.6 21:58:14 10° WNW 21:58:29 11° WNW 21:58:29 11° WNW visible
27 Oct 1.4 20:06:45 10° WNW 20:10:40 39° N 20:13:18 18° ENE visible
27 Oct 3.2 21:47:40 10° WNW 21:48:39 16° WNW 21:48:39 16° WNW visible
28 Oct 1.4 19:56:06 10° WNW 20:00:03 42° N 20:03:24 14° ENE visible
28 Oct 2.8 21:37:06 10° WNW 21:38:45 21° WNW 21:38:45 21° WNW visible
29 Oct 1.4 19:45:28 10° WNW 19:49:27 43° N 19:53:25 10° ENE visible
29 Oct 2.5 21:26:35 10° WNW 21:28:48 25° NW 21:28:48 25° NW visible
30 Oct 2.2 21:16:04 10° WNW 21:18:48 27° NW 21:18:48 27° NW visible
